[[{"header":{"parameterUnit":"m.s-1","parameterCategory":1,"la1":30.2991,"la2":30.254,"lo1":-89.0895,"lo2":-89.0444,"dy":0.0017,"dx":0.0017,"nx":28,"ny":28,"refTime":"2025-07-09T03:00:00:Z","depth":0,"parameterNumber":2,"parameterNumberName":"U-component_of_WINDS"},"data":[0,0,0,0,0,0,0,0,0,0,0,0,0,0,0,0,0,0,0,0,0,0,0,0,0,0,0,0,0,0,0,0,0,0,0,0,0,0,0,0,0,0,0,0,0,0,0,0,0,0,0,0,0,0,0,0,0,0,4.0132,4.0133,0,4.021,4.0211,4.0212,4.0164,4.0162,4.0159,4.0157,4.0243,4.0247,4.0252,0,0,0,0,0,0,0,0,0,0,0,0,0,3.9947,3.9951,4.0132,4.0133,4.0134,4.021,4.0211,4.0212,4.0164,4.0162,4.0159,4.0156,4.0241,4.0247,4.0252,0,0,0,0,0,0,0,0,0,0,0,0,0,4.0027,3.9952,4.0132,4.0119,4.0119,4.021,4.0211,4.0213,4.0165,4.0161,4.0158,4.0155,4.024,4.0246,4.0253,4.0363,0,0,4.0273,4.0276,0,0,0,0,0,0,0,0,4.0022,4.0034,4.012,4.012,4.012,4.0174,4.0177,4.0263,4.0166,4.0148,4.0157,4.0153,4.0223,4.0231,4.0253,4.0367,4.037,4.0273,4.0278,4.028,4.0282,0,0,0,0,0,0,0,4.0017,4.003,4.0163,4.0121,4.0121,4.0111,4.0119,4.0193,4.0204,4.0149,4.0146,4.0155,4.0222,4.0247,4.0255,4.0371,4.0273,4.0279,4.0283,4.0286,4.0581,4.0585,0,0,0,0,0,0,4.0011,4.0026,4.0161,4.0165,4.0061,4.0118,4.0126,4.016,4.0203,4.0206,4.0158,4.0153,4.0237,4.0247,4.0258,4.0391,4.028,4.0287,4.029,4.0577,4.0582,4.0586,0,0,0,0,0,0,4.0008,4.0024,4.0157,4.0095,4.0111,4.0124,4.0163,4.0163,4.0188,4.021,4.0212,4.0181,4.0235,4.0248,4.0337,4.0393,4.029,4.0296,4.0573,4.0579,4.0584,4.0657,0,0,0,0,0,0,4.0003,4.0023,4.0063,4.0096,4.0114,4.0234,4.0166,4.0167,4.0199,4.0192,4.0232,4.0235,4.0233,4.0327,4.0344,4.04,4.0301,4.0568,4.0576,4.0582,4.0649,4.0664,4.0677,0,0,0,0,0,3.9996,4.0081,4.0065,4.0082,4.0165,4.0237,4.0248,4.0243,4.0203,4.0245,4.026,4.0234,4.0384,4.0337,4.0355,4.0414,4.0564,4.0573,4.0582,4.0643,4.0661,4.0677,0,0,0,0,0,0,4.0056,4.0085,4.0068,4.0166,4.0199,4.0229,4.0281,4.0262,4.0308,4.0301,4.0294,4.0303,4.0396,4.0414,4.0361,4.0524,4.0468,4.0481,4.0509,4.0526,4.054,4.0534,4.0306,0,0,0,0,0,4.0081,4.0135,4.0158,4.0242,4.026,4.0268,4.0299,4.0292,4.0327,4.0341,4.0362,4.0399,4.0454,4.0491,4.0543,4.0651,4.0661,4.0701,4.0715,4.0726,4.0738,4.0799,4.0818,4.0615,4.0615,4.0615,0,0,4.0132,4.0155,4.019,4.0255,4.028,4.0339,4.028,4.0344,4.0388,4.0352,4.0437,4.0453,4.0494,4.0593,4.0638,4.0611,4.0796,4.0737,4.0746,4.0752,4.081,4.0829,4.0846,4.0621,4.062,4.0619,0,0,4.0257,4.0278,4.0351,4.0378,4.0416,4.0421,4.0438,4.0471,4.048,4.0565,4.0539,4.0592,4.0688,4.0718,4.0746,4.0883,4.0862,4.09,4.0973,4.1032,4.1048,4.1062,4.1113,4.1131,4.0911,4.0912,4.0912,0,4.0316,4.0402,4.0392,4.0458,4.0489,4.0457,4.0533,4.0559,4.0613,4.0636,4.0604,4.0724,4.0749,4.0856,4.0889,4.0912,4.0934,4.0896,4.1046,4.106,4.1074,4.1122,4.1141,4.0916,4.0916,4.0915,4.0915,0,4.0475,4.0534,4.0589,4.0641,4.0678,4.0748,4.0752,4.079,4.078,4.0789,4.0877,4.0906,4.0964,4.0989,4.098,4.1095,4.1077,4.1046,4.0991,4.1098,4.1143,4.1161,4.0923,4.0921,4.092,4.0919,0,0,4.0639,4.0685,4.0705,4.0729,4.0769,4.0816,4.0887,4.0942,4.0976,4.1015,4.1075,4.1157,4.1128,4.116,4.1155,4.1207,4.1316,4.1169,4.117,4.1197,4.1447,4.1471,4.1492,4.1301,4.1305,4.1307,4.1444,0,4.0767,4.0888,4.0882,4.0996,4.1053,4.1023,4.1085,4.1118,4.1128,4.1179,4.1191,4.125,4.1207,4.1226,4.1276,4.1292,4.1366,4.1282,4.136,4.1363,4.1352,4.1516,4.1542,4.1669,4.1461,4.1464,4.1466,0,4.0932,4.0976,4.1095,4.1128,4.1152,4.1207,4.1258,4.1306,4.1343,4.1347,4.1383,4.137,4.1443,4.1385,4.1487,4.143,4.1462,4.1474,4.1479,4.1488,4.1422,4.153,4.1709,4.1729,4.1494,4.1492,4.149,0,4.1043,4.1131,4.1214,4.1235,4.1275,4.1315,4.1334,4.1367,4.1402,4.1447,4.1469,4.1523,4.1553,4.1596,4.1599,4.1555,4.1703,4.1644,4.1711,4.1711,4.1744,4.1742,4.1932,4.1762,4.1762,4.1761,4.1761,0,4.1188,4.1262,4.1265,4.1316,4.14,4.1393,4.1476,4.1492,4.1522,4.1577,4.1556,4.1609,4.1607,4.1662,4.1665,4.175,4.1764,4.1771,4.1771,4.1774,4.1773,4.1795,4.1787,4.1766,4.1765,4.1764,4.1763,0,4.1326,4.133,4.1419,4.1449,4.1459,4.1519,4.1546,4.1596,4.1605,4.1675,4.1692,4.1706,4.1769,4.1775,4.1849,4.185,4.1955,4.1944,4.1942,4.1941,4.2007,4.2002,4.2219,4.2249,4.2058,4.206,4.2061,0,4.1418,4.1475,4.1511,4.1546,4.1567,4.1623,4.1658,4.1654,4.1691,4.1738,4.1783,4.1844,4.1892,4.1995,4.2013,4.207,4.2062,4.2134,4.2071,4.2072,4.2065,4.2062,4.2069,4.2147,4.2149,4.2151,4.2153,0,4.1583,4.1582,4.1632,4.1683,4.1725,4.1765,4.1803,4.1833,4.1834,4.1878,4.1941,4.1979,4.2053,4.2115,4.2171,4.2192,4.2174,4.2172,4.2191,4.2195,4.2192,4.2196,4.1977,4.2168,4.2166,4.2165,4.2164,4.2164,4.1702,4.1752,4.1786,4.1842,4.187,4.1906,4.1955,4.1969,4.2021,4.2081,4.2076,4.2147,4.2184,4.2257,4.2283,4.2339,4.2315,4.2342,4.2349,4.2356,4.2364,4.2182,4.2349,4.2349,4.2349,4.2348,4.2348,0,4.1867,4.1887,4.1939,4.1993,4.2038,4.2014,4.2055,4.2095,4.2157,4.2193,4.2241,4.2315,4.2374,4.2397,4.2456,4.2497,4.249,4.2513,4.251,4.2516,4.2381,4.236,4.2517,4.2517,4.2517,4.2517,4.2517,4.2517,4.1959,4.2042,4.2045,4.2143,4.2163,4.2231,4.2257,4.2291,4.2319,4.2402,4.2451,4.2465,4.2496,4.2557,4.2611,4.2616,4.264,4.2667,4.2669,4.2542,4.2525,4.2509,4.2489,4.2671,4.2672,4.2799,4.28,4.2801]},{"header":{"parameterUnit":"m.s-1","parameterCategory":1,"la1":30.2991,"la2":30.254,"lo1":-89.0895,"lo2":-89.0444,"dy":0.0017,"dx":0.0017,"nx":28,"ny":28,"refTime":"2025-07-09T03:00:00:Z","depth":0,"parameterNumber":3,"parameterNumberName":"V-component_of_WINDS"},"data":[0,0,0,0,0,0,0,0,0,0,0,0,0,0,0,0,0,0,0,0,0,0,0,0,0,0,0,0,0,0,0,0,0,0,0,0,0,0,0,0,0,0,0,0,0,0,0,0,0,0,0,0,0,0,0,0,0,0,2.1168,2.1169,0,2.1248,2.1249,2.125,2.1291,2.1291,2.1291,2.1291,2.137,2.1372,2.1375,0,0,0,0,0,0,0,0,0,0,0,0,0,2.1043,2.1045,2.1168,2.1169,2.117,2.1248,2.1249,2.125,2.1291,2.1291,2.1291,2.1291,2.137,2.1372,2.1375,0,0,0,0,0,0,0,0,0,0,0,0,0,2.1108,2.1046,2.1167,2.1199,2.1203,2.1248,2.1249,2.1251,2.1291,2.1291,2.1291,2.1291,2.1369,2.1372,2.1375,2.1394,0,0,2.1385,2.1386,0,0,0,0,0,0,0,0,2.1104,2.1112,2.1194,2.1197,2.1201,2.1259,2.1235,2.1299,2.1291,2.1257,2.1291,2.1291,2.1333,2.1339,2.1354,2.1398,2.1401,2.1385,2.1387,2.1388,2.1389,0,0,0,0,0,0,0,2.11,2.1109,2.1199,2.1195,2.1199,2.1208,2.1217,2.1247,2.1294,2.126,2.1263,2.1272,2.1335,2.1351,2.1356,2.1402,2.1385,2.1388,2.139,2.1391,2.1461,2.1461,0,0,0,0,0,0,2.1091,2.1105,2.1197,2.1202,2.1152,2.121,2.122,2.1241,2.1294,2.1302,2.1272,2.1274,2.1346,2.1353,2.1359,2.1383,2.1388,2.1391,2.1393,2.1461,2.1461,2.1461,0,0,0,0,0,0,2.1088,2.1098,2.1194,2.1154,2.1167,2.1212,2.1235,2.1242,2.1258,2.1303,2.1311,2.128,2.1346,2.1355,2.1384,2.1386,2.1393,2.1395,2.1461,2.1461,2.1461,2.1431,0,0,0,0,0,0,2.1084,2.1097,2.1106,2.1154,2.1169,2.1219,2.1235,2.1244,2.1264,2.1267,2.1313,2.132,2.1347,2.1379,2.1387,2.1391,2.1398,2.1461,2.1461,2.1461,2.1432,2.143,2.1428,0,0,0,0,0,2.1079,2.1095,2.1107,2.1117,2.1182,2.1219,2.1227,2.1258,2.1264,2.1272,2.13,2.1319,2.1385,2.1382,2.1392,2.1396,2.1461,2.1461,2.1461,2.1433,2.143,2.1428,0,0,0,0,0,0,2.1046,2.1102,2.1116,2.1147,2.1178,2.1226,2.1238,2.1255,2.1285,2.1286,2.1322,2.1332,2.1358,2.138,2.1376,2.1415,2.1424,2.1426,2.14,2.1398,2.1396,2.139,2.1401,0,0,0,0,0,2.1042,2.1069,2.1116,2.1139,2.1154,2.1193,2.121,2.1231,2.1264,2.1277,2.1308,2.1338,2.1365,2.1383,2.1411,2.1435,2.1444,2.1442,2.144,2.1438,2.1439,2.1451,2.145,2.1461,2.1461,2.1461,0,0,2.1035,2.1069,2.1083,2.1133,2.116,2.1184,2.1204,2.123,2.1248,2.1281,2.1311,2.1333,2.1369,2.1395,2.1409,2.1415,2.1438,2.1438,2.1436,2.1439,2.1451,2.1449,2.1448,2.1461,2.1461,2.1461,0,0,2.1034,2.1063,2.1084,2.111,2.1149,2.1174,2.1179,2.1224,2.124,2.127,2.1294,2.1316,2.1363,2.1387,2.1405,2.1409,2.1426,2.1417,2.1406,2.1417,2.1416,2.1416,2.1415,2.1415,2.1417,2.1417,2.1417,0,2.102,2.106,2.1093,2.1117,2.1137,2.1168,2.1188,2.1211,2.1257,2.1269,2.1275,2.1332,2.1359,2.139,2.139,2.1405,2.1409,2.1412,2.1414,2.1414,2.1414,2.1413,2.1413,2.1416,2.1416,2.1416,2.1416,0,2.1039,2.1066,2.1078,2.1122,2.1143,2.1165,2.1199,2.1216,2.1235,2.1258,2.1286,2.1319,2.1352,2.1361,2.138,2.1393,2.1396,2.1407,2.1418,2.141,2.1411,2.1411,2.1414,2.1414,2.1415,2.1415,0,0,2.1022,2.1081,2.1085,2.1104,2.1147,2.1168,2.119,2.1223,2.1236,2.1266,2.1283,2.1321,2.1331,2.1351,2.1372,2.1382,2.138,2.1392,2.1393,2.1387,2.1394,2.1384,2.1384,2.1391,2.1391,2.1391,2.139,0,2.1027,2.1069,2.1097,2.1128,2.1151,2.1178,2.1197,2.1225,2.1246,2.1268,2.1292,2.1317,2.133,2.1342,2.1352,2.1378,2.1381,2.1378,2.1406,2.1407,2.1396,2.1385,2.1375,2.1373,2.1391,2.1391,2.1391,0,2.1039,2.1067,2.1099,2.1137,2.1148,2.1165,2.1196,2.1217,2.1247,2.1262,2.1283,2.1304,2.1326,2.1333,2.1363,2.136,2.1372,2.1386,2.1386,2.139,2.1398,2.1386,2.1374,2.1373,2.1392,2.1392,2.1392,0,2.1021,2.1067,2.1091,2.1107,2.1152,2.1163,2.1182,2.1213,2.1229,2.1256,2.1266,2.1294,2.131,2.133,2.1356,2.136,2.1382,2.1392,2.1393,2.1392,2.1397,2.1396,2.1384,2.1406,2.1406,2.1406,2.1406,0,2.1023,2.1041,2.1083,2.1099,2.1119,2.115,2.1168,2.119,2.1216,2.1234,2.1259,2.1275,2.1309,2.1329,2.135,2.1369,2.1376,2.1387,2.1392,2.1385,2.1383,2.1393,2.1394,2.1406,2.1406,2.1406,2.1406,0,2.1007,2.1036,2.1064,2.1104,2.1115,2.1127,2.1161,2.1175,2.1197,2.1219,2.1226,2.126,2.1284,2.1312,2.1346,2.1359,2.1376,2.1385,2.1366,2.1369,2.1367,2.1367,2.1362,2.1362,2.1384,2.1383,2.1383,0,2.1006,2.1021,2.1061,2.1075,2.1094,2.1116,2.1133,2.1162,2.1179,2.1212,2.1222,2.1247,2.127,2.1306,2.1333,2.1357,2.1366,2.1362,2.137,2.136,2.1364,2.1362,2.1363,2.136,2.136,2.1359,2.1359,0,2.1001,2.1014,2.1038,2.1065,2.1084,2.1107,2.1132,2.1141,2.1175,2.1191,2.1216,2.1233,2.1266,2.129,2.1317,2.1335,2.1352,2.1356,2.1357,2.135,2.1338,2.1342,2.136,2.1356,2.1357,2.1357,2.1357,2.1357,2.0992,2.1005,2.1035,2.1059,2.108,2.1101,2.1115,2.1138,2.116,2.1189,2.1205,2.1228,2.1255,2.1293,2.131,2.1327,2.1333,2.1335,2.1336,2.1336,2.1332,2.1335,2.1332,2.1333,2.1333,2.1333,2.1333,0,2.0987,2.1006,2.1029,2.1061,2.1079,2.1093,2.1119,2.1133,2.1154,2.1178,2.1198,2.1224,2.1247,2.1274,2.1298,2.1307,2.1315,2.1312,2.1311,2.1314,2.1327,2.1323,2.1305,2.1305,2.1305,2.1305,2.1305,2.1305,2.0986,2.1008,2.1024,2.1055,2.1074,2.1097,2.1111,2.1129,2.1148,2.1176,2.1195,2.1213,2.1237,2.1262,2.1283,2.129,2.1297,2.1292,2.1301,2.1312,2.1314,2.1316,2.1313,2.1293,2.1293,2.1287,2.1287,2.1287]}]]